Tracking 31011 objects as of 13-Jul-2025
HD Live streaming from Space Station
objects crossing your sky now

ONEWEB-0209

Track ONEWEB-0209 now!
10-day predictions
ONEWEB-0209 is classified as:


NORAD ID: 48215
Int'l Code: 2021-031F
Perigee: 1,211.6 km
Apogee: 1,214.2 km
Inclination: 87.9 °
Period: 109.5 minutes
Semi major axis: 7583 km
RCS: Unknown
Launch date: April 25, 2021
Source: United Kingdom (UK)
Launch site: VOSTOCHNY COSMODROME (VOSTO)
Your satellite tracking list
Your tracking list is empty




NASA's NSSDC Master Catalog

Two Line Element Set (TLE):
1 48215U 21031F   25193.68098767  .00000222  00000-0  56459-3 0  9996
2 48215  87.9046 357.2696 0001695  88.5337 271.5987 13.14503218203775
Source of the keplerian elements: AFSPC